This is the latest recevied weather packets stored in our database for station/object W0DXV. If no packets are shown the sender has not sent any weather packets the latest 10 day(s).
| Time | Temp. | Humidity | Pressure | Rain* | Wind** | Luminosity | Snow |
|---|---|---|---|---|---|---|---|
| 1777857581 | 10° C | 74% | 1012.3 hPa | 0 mm | - | 0 W/m² | - |
| 1777857277 | 10.56° C | 73% | 1012.1 hPa | 0 mm | - | 0 W/m² | - |
| 1777856973 | 10.56° C | 73% | 1012 hPa | 0 mm | - | 0 W/m² | - |
| 1777856669 | 10.56° C | 72% | 1012 hPa | 0 mm | - | 0 W/m² | - |
| 1777856365 | 11.11° C | 71% | 1012 hPa | 0 mm | - | 0 W/m² | - |
| 1777856062 | 11.11° C | 70% | 1011.8 hPa | 0 mm | - | 0 W/m² | - |
| 1777855759 | 11.67° C | 68% | 1011.9 hPa | 0 mm | - | 0 W/m² | - |
| 1777855457 | 11.67° C | 68% | 1012 hPa | 0 mm | - | 0 W/m² | - |
| 1777855154 | 12.22° C | 66% | 1012 hPa | 0 mm | - | 0 W/m² | - |
| 1777854850 | 12.22° C | 65% | 1011.8 hPa | 0 mm | - | 0 W/m² | - |
| 1777854547 | 12.78° C | 62% | 1011.7 hPa | 0 mm | - | 0 W/m² | - |
| 1777854244 | 13.33° C | 62% | 1011.5 hPa | 0 mm | - | 0 W/m² | - |
| 1777853941 | 13.33° C | 60% | 1011.6 hPa | 0 mm | - | 1 W/m² | - |
| 1777853639 | 13.89° C | 59% | 1011.5 hPa | 0 mm | - | 2 W/m² | - |
| 1777853335 | 14.44° C | 55% | 1011.6 hPa | 0 mm | - | 3 W/m² | - |
| 1777853032 | 15° C | 54% | 1011.4 hPa | 0 mm | - | 5 W/m² | - |
| 1777852730 | 15.56° C | 52% | 1011.5 hPa | 0 mm | - | 7 W/m² | - |
| 1777852428 | 15.56° C | 46% | 1011.4 hPa | 0 mm | - | 9 W/m² | - |
| 1777852124 | 16.11° C | 43% | 1011.5 hPa | 0 mm | - | 11 W/m² | - |
| 1777851822 | 16.67° C | 42% | 1011.4 hPa | 0 mm | - | 13 W/m² | - |
| 1777851520 | 16.67° C | 41% | 1011.3 hPa | 0 mm | - | 15 W/m² | - |
| 1777851216 | 16.67° C | 41% | 1011.5 hPa | 0 mm | - | 17 W/m² | - |
| 1777850912 | 16.67° C | 39% | 1011.5 hPa | 0 mm | - | 19 W/m² | - |
| 1777850610 | 17.22° C | 40% | 1011.4 hPa | 0 mm | - | 20 W/m² | - |
| 1777850307 | 17.22° C | 39% | 1011.5 hPa | 0 mm | - | 22 W/m² | - |
* Rain latest hour (hover to see other rain measurements)
** Current wind speed in m/s (hover to see current wind gust speed)